ON7LDS-13 Weather Reports


time (UTC)temp
F
wind
direction
speed
knots
gust
knots
rain 1hr
in
rain 24hr
in
rain mn
in
humidity
%
barometer
mb
20260507115640 62 0.0 0.0 0.00 0.00 0.00 59 1020.4
20260507114540 62 0.0 0.0 0.00 0.00 0.00 59 1020.4
20260507113540 61 0.0 0.0 0.00 0.00 0.00 59 1020.4
20260507112540 62 0.0 0.0 0.00 0.00 0.00 58 1020.5
20260507111541 62 0.0 0.0 0.00 0.00 0.00 58 1020.5
20260507110540 62 0.0 0.0 0.00 0.00 0.00 58 1020.5
20260507105542 62 0.0 0.0 0.00 0.00 0.00 58 1020.5
20260507104540 61 0.0 0.0 0.00 0.00 0.00 57 1020.5
20260507103540 59 0.0 0.0 0.00 0.00 0.00 58 1020.6
20260507102540 59 0.0 0.0 0.00 0.00 0.00 58 1020.6
20260507101539 59 0.0 0.0 0.00 0.00 0.00 57 1020.6
20260507100609 58 0.0 0.0 0.00 0.00 0.00 58 1020.5
20260507095539 59 0.0 0.0 0.00 0.00 0.00 58 1020.5
20260507094539 58 0.0 0.0 0.00 0.00 0.00 57 1020.4
20260507093541 58 0.0 0.0 0.00 0.00 0.00 57 1020.5
20260507092539 58 0.0 0.0 0.00 0.00 0.00 53 1020.4
20260507091541 57 0.0 0.0 0.00 0.00 0.00 54 1020.3
20260507090631 57 0.0 0.0 0.00 0.00 0.00 55 1020.4
20260507085541 57 0.0 0.0 0.00 0.00 0.00 56 1020.2
20260507084540 57 0.0 0.0 0.00 0.00 0.00 50 1020.2
20260507083539 56 0.0 0.0 0.00 0.00 0.00 49 1020.2
20260507082539 56 0.0 0.0 0.00 0.00 0.00 45 1020.1
20260507081540 55 0.0 0.0 0.00 0.00 0.00 41 1020.1
20260507080600 55 0.0 0.0 0.00 0.00 0.00 38 1020.1
20260507075539 54 0.0 0.0 0.00 0.00 0.00 40 1020.1
20260507074608 54 0.0 0.0 0.00 0.00 0.00 37 1020.0
20260507073538 54 0.0 0.0 0.00 0.00 0.00 33 1019.9
20260507072538 54 0.0 0.0 0.00 0.00 0.00 28 1019.9
20260507071538 53 0.0 0.0 0.00 0.00 0.00 19 1019.9
20260507070538 52 0.0 0.0 0.00 0.00 0.00 11 1019.9
20260507065538 51 0.0 0.0 0.00 0.00 0.00 1 1019.8
20260507064538 50 0.0 0.0 0.00 0.00 0.00 1 1019.8
20260507063608 50 0.0 0.0 0.00 0.00 0.00 1 1019.8
20260507062608 50 0.0 0.0 0.00 0.00 0.00 1 1019.6
20260507061608 49 0.0 0.0 0.00 0.00 0.00 1 1019.5
20260507060538 49 0.0 0.0 0.00 0.00 0.00 1 1019.4
20260507055537 49 0.0 0.0 0.00 0.00 0.00 1 1019.3
20260507054539 48 0.0 0.0 0.00 0.00 0.00 1 1019.2
20260507053558 48 0.0 0.0 0.00 0.00 0.00 1 1019.2
20260507052638 48 0.0 0.0 0.00 0.00 0.00 1 1019.1
20260507051539 48 0.0 0.0 0.00 0.00 0.00 1 1019.0
20260507050637 48 0.0 0.0 0.00 0.00 0.00 1 1018.9
20260507045627 47 0.0 0.0 0.00 0.00 0.00 1 1018.8
20260507044537 47 0.0 0.0 0.00 0.00 0.00 1 1018.7
20260507043607 47 0.0 0.0 0.00 0.00 0.00 1 1018.6
20260507042619 47 0.0 0.0 0.00 0.00 0.00 1 1018.6
20260507041538 47 0.0 0.0 0.00 0.00 0.00 1 1018.4
20260507040557 47 0.0 0.0 0.00 0.00 0.00 1 1018.3
20260507035606 47 0.0 0.0 0.00 0.00 0.00 1 1018.3
20260507034556 47 0.0 0.0 0.00 0.00 0.00 1 1018.2
20260507033536 47 0.0 0.0 0.00 0.00 0.00 1 1018.2
20260507032628 48 0.0 0.0 0.00 0.00 0.00 1 1018.2
20260507031606 48 0.0 0.0 0.00 0.00 0.00 1 1018.2
20260507030638 48 0.0 0.0 0.00 0.00 0.00 1 1018.1
20260507025538 48 0.0 0.0 0.00 0.00 0.00 1 1018.1
20260507024538 48 0.0 0.0 0.00 0.00 0.00 1 1018.1
20260507023606 48 0.0 0.0 0.00 0.00 0.00 1 1018.1
20260507022536 48 0.0 0.0 0.00 0.00 0.00 1 1018.0
20260507021626 48 0.0 0.0 0.00 0.00 0.00 1 1018.0
20260507020536 48 0.0 0.0 0.00 0.00 0.00 1 1017.9
20260507015536 48 0.0 0.0 0.00 0.00 0.00 1 1017.8
20260507014536 48 0.0 0.0 0.00 0.00 0.00 1 1017.7
20260507013537 48 0.0 0.0 0.00 0.00 0.00 1 1017.7
20260507012605 48 0.0 0.0 0.00 0.00 0.00 1 1017.7
20260507011606 49 0.0 0.0 0.00 0.00 0.00 1 1017.7
20260507010627 49 0.0 0.0 0.00 0.00 0.00 1 1017.6
20260507005556 49 0.0 0.0 0.00 0.00 0.00 1 1017.7
20260507004637 49 0.0 0.0 0.00 0.00 0.00 1 1017.6
20260507003535 49 0.0 0.0 0.00 0.00 0.00 1 1017.6
20260507002557 49 0.0 0.0 0.00 0.00 0.00 1 1017.6
20260507001605 49 0.0 0.0 0.00 0.00 0.00 3 1017.5
20260507000625 49 0.0 0.0 0.00 0.00 0.00 5 1017.5
20260506235555 49 0.0 0.0 0.00 0.00 0.00 6 1017.4
20260506234606 49 0.0 0.0 0.00 0.00 0.00 7 1017.4
20260506233534 49 0.0 0.0 0.00 0.00 0.00 8 1017.3
20260506232634 49 0.0 0.0 0.00 0.00 0.00 10 1017.3
20260506231535 49 0.0 0.0 0.00 0.00 0.00 11 1017.3
20260506230648 49 0.0 0.0 0.00 0.00 0.00 12 1017.1
20260506225638 50 0.0 0.0 0.00 0.00 0.00 12 1017.1
20260506224534 50 0.0 0.0 0.00 0.00 0.00 14 1017.1
20260506223534 50 0.0 0.0 0.00 0.00 0.00 14 1017.1
20260506222554 50 0.0 0.0 0.00 0.00 0.00 14 1017.0
20260506221534 50 0.0 0.0 0.00 0.00 0.00 14 1016.9
20260506220536 50 0.0 0.0 0.00 0.00 0.00 15 1016.9
20260506214634 50 0.0 0.0 0.00 0.00 0.00 16 1016.8
20260506213534 50 0.0 0.0 0.00 0.00 0.00 18 1016.8
20260506212534 51 0.0 0.0 0.00 0.00 0.00 20 1016.7
20260506211534 51 0.0 0.0 0.00 0.00 0.00 18 1016.6
20260506210645 51 0.0 0.0 0.00 0.00 0.00 16 1016.6
20260506205603 51 0.0 0.0 0.00 0.00 0.00 18 1016.5
20260506204603 51 0.0 0.0 0.00 0.00 0.00 19 1016.5
20260506203655 51 0.0 0.0 0.00 0.00 0.00 20 1016.4
20260506202603 51 0.0 0.0 0.00 0.00 0.00 20 1016.4
20260506201535 51 0.0 0.0 0.00 0.00 0.00 21 1016.3
20260506200533 51 0.0 0.0 0.00 0.00 0.00 22 1016.2
20260506195534 51 0.0 0.0 0.00 0.00 0.00 22 1016.1
20260506194535 52 0.0 0.0 0.00 0.00 0.00 23 1016.1
20260506193533 52 0.0 0.0 0.00 0.00 0.00 24 1016.0
20260506192533 52 0.0 0.0 0.00 0.00 0.00 27 1015.9
20260506191535 52 0.0 0.0 0.00 0.00 0.00 26 1015.8
20260506190534 53 0.0 0.0 0.00 0.00 0.00 31 1015.7
20260506185533 53 0.0 0.0 0.00 0.00 0.00 34 1015.6
20260506184602 53 0.0 0.0 0.00 0.00 0.00 37 1015.5
20260506183643 54 0.0 0.0 0.00 0.00 0.00 40 1015.4
20260506182632 54 0.0 0.0 0.00 0.00 0.00 42 1015.3
20260506181532 54 0.0 0.0 0.00 0.00 0.00 44 1015.1
20260506180532 54 0.0 0.0 0.00 0.00 0.00 46 1015.0
20260506175532 55 0.0 0.0 0.00 0.00 0.00 48 1014.9
20260506174554 55 0.0 0.0 0.00 0.00 0.00 50 1014.8
20260506173555 55 0.0 0.0 0.00 0.00 0.00 51 1014.7
20260506172602 56 0.0 0.0 0.00 0.00 0.00 52 1014.6
20260506171532 56 0.0 0.0 0.00 0.00 0.00 53 1014.5
20260506170602 56 0.0 0.0 0.00 0.00 0.00 56 1014.4
20260506165533 57 0.0 0.0 0.00 0.00 0.00 56 1014.3
20260506164553 58 0.0 0.0 0.00 0.00 0.00 57 1014.1
20260506163551 58 0.0 0.0 0.00 0.00 0.00 57 1013.9
20260506162532 59 0.0 0.0 0.00 0.00 0.00 57 1013.8
20260506161653 59 0.0 0.0 0.00 0.00 0.00 57 1013.8
20260506160633 59 0.0 0.0 0.00 0.00 0.00 57 1013.8
20260506155613 59 0.0 0.0 0.00 0.00 0.00 57 1013.8
20260506154533 59 0.0 0.0 0.00 0.00 0.00 57 1013.8
20260506153531 59 0.0 0.0 0.00 0.00 0.00 57 1013.8
20260506152531 60 0.0 0.0 0.00 0.00 0.00 56 1013.7
20260506151531 60 0.0 0.0 0.00 0.00 0.00 56 1013.7
20260506150531 60 0.0 0.0 0.00 0.00 0.00 56 1013.6
20260506145532 60 0.0 0.0 0.00 0.00 0.00 56 1013.5
20260506144601 60 0.0 0.0 0.00 0.00 0.00 57 1013.6
20260506143531 61 0.0 0.0 0.00 0.00 0.00 56 1013.6
20260506142532 61 0.0 0.0 0.00 0.00 0.00 56 1013.5
20260506141530 61 0.0 0.0 0.00 0.00 0.00 56 1013.5
20260506140652 61 0.0 0.0 0.00 0.00 0.00 56 1013.5
20260506135530 61 0.0 0.0 0.00 0.00 0.00 56 1013.5
20260506134530 61 0.0 0.0 0.00 0.00 0.00 56 1013.5
20260506133531 61 0.0 0.0 0.00 0.00 0.00 56 1013.5
20260506132550 61 0.0 0.0 0.00 0.00 0.00 54 1013.4
20260506131532 60 0.0 0.0 0.00 0.00 0.00 55 1013.4
20260506130530 60 0.0 0.0 0.00 0.00 0.00 54 1013.3
20260506125530 60 0.0 0.0 0.00 0.00 0.00 52 1013.3
20260506124559 60 0.0 0.0 0.00 0.00 0.00 48 1013.3
20260506123529 60 0.0 0.0 0.00 0.00 0.00 41 1013.3
20260506122600 60 0.0 0.0 0.00 0.00 0.00 28 1013.2
20260506121529 59 0.0 0.0 0.00 0.00 0.00 31 1013.1